Port Huron, MI

3:11 PM EDT on September 22, 2019 (GMT -0400)
Saint Clair County International

Weather History for KPHN - August, 2019

Change the Weather History Date:

Saturday, August 24, 2019

  Actual Average (WUND) Record (WUND)
Temperature  
Mean Temperature 60 °F -  
Max Temperature 71 °F - - (-1)
Min Temperature 48 °F - - (-1)
Degree Days  
Heating Degree Days 6    
Growing Degree Days 10 (Base 50)    
Moisture  
Dew Point 50 °F    
Average Humidity 68    
Maximum Humidity 94    
Minimum Humidity 43    
Precipitation  
Precipitation 0.00 in - - ()
Sea Level Pressure  
Sea Level Pressure 30.29 in    
Wind  
Wind Speed 3 mph (NNE)    
Max Wind Speed 14 mph    
Max Gust Speed 20 mph    
Visibility 10 miles    
Events      
Averages and records for this station are not official NWS values.
T = Trace of Precipitation, MM = Missing Value Source: NWS Daily Summary

Daily Weather History Graph

Daily Weather History Graph

Search for Another Location

Airport or City:

Astronomy

Aug. 24, 2019 Rise Set
Actual Time 6:45 AM EDT 8:18 PM EDT
Civil Twilight 6:15 AM EDT 8:48 PM EDT
Nautical Twilight 5:39 AM EDT 9:24 PM EDT
Astronomical Twilight 5:01 AM EDT 10:02 PM EDT
Moon 12:35 AM EDT (8/24) 3:37 PM EDT (8/24)
Length of Visible Light 14h 32m
Length of Day
13h 32m
Last Quarter, 39% of the Moon is Illuminated
Aug 24
Last Quarter
Aug 30
New
Sep 5
First Quarter
Sep 14
Full
Sep 21
Last Quarter

Hourly Weather History & Observations

Time (EDT) Temp. Dew Point Humidity Pressure Visibility Wind Dir Wind Speed Gust Speed Precip Events Conditions
12:15 AM 55.4 °F 50.0 °F 82% 30.25 in 10.0 mi NW 4.6 mph - N/A   Clear
12:16 AM 55.4 °F 50.0 °F 82% 30.25 in 10.0 mi NW 4.6 mph - N/A   Clear
12:35 AM 55.4 °F 50.0 °F 82% 30.26 in 10.0 mi NW 5.8 mph - N/A   Scattered Clouds
12:55 AM 55.4 °F 50.0 °F 82% 30.26 in 10.0 mi NW 4.6 mph - N/A   Scattered Clouds
12:56 AM 55.4 °F 50.0 °F 82% 30.26 in 10.0 mi WNW 4.6 mph - N/A   Scattered Clouds
1:15 AM 55.4 °F 50.0 °F 82% 30.26 in 10.0 mi Calm Calm - N/A   Mostly Cloudy
1:16 AM 55.4 °F 50.0 °F 82% 30.26 in 10.0 mi Calm Calm - N/A   Mostly Cloudy
1:35 AM 55.4 °F 50.0 °F 82% 30.27 in 10.0 mi Calm Calm - N/A   Overcast
1:55 AM 55.4 °F 50.0 °F 82% 30.27 in 10.0 mi Calm Calm - N/A   Mostly Cloudy
2:15 AM 53.6 °F 50.0 °F 88% 30.27 in 10.0 mi Calm Calm - N/A   Mostly Cloudy
2:16 AM 53.6 °F 50.0 °F 88% 30.27 in 10.0 mi Calm Calm - N/A   Mostly Cloudy
2:35 AM 53.6 °F 48.2 °F 82% 30.26 in 10.0 mi Calm Calm - N/A   Mostly Cloudy
2:55 AM 51.8 °F 48.2 °F 88% 30.27 in 10.0 mi Calm Calm - N/A   Scattered Clouds
3:15 AM 51.8 °F 48.2 °F 88% 30.27 in 10.0 mi Calm Calm - N/A   Mostly Cloudy
3:35 AM 51.8 °F 48.2 °F 88% 30.27 in 10.0 mi Calm Calm - N/A   Mostly Cloudy
3:36 AM 51.8 °F 48.2 °F 88% 30.27 in 10.0 mi Calm Calm - N/A   Mostly Cloudy
3:55 AM 50.0 °F 46.4 °F 87% 30.27 in 7.0 mi Calm Calm - N/A   Scattered Clouds
4:15 AM 50.0 °F 46.4 °F 87% 30.27 in 1.5 mi Calm Calm - N/A   Mist
4:35 AM 50.0 °F 46.4 °F 87% 30.27 in 3.0 mi Calm Calm - N/A   Clear
4:36 AM 50.0 °F 46.4 °F 87% 30.27 in 3.0 mi Calm Calm - N/A   Clear
4:55 AM 48.2 °F 46.4 °F 93% 30.28 in 2.0 mi Calm Calm - N/A   Clear
5:15 AM 48.2 °F 46.4 °F 93% 30.28 in 2.5 mi Calm Calm - N/A   Scattered Clouds
5:35 AM 50.0 °F 48.2 °F 94% 30.29 in 10.0 mi Calm Calm - N/A   Overcast
5:36 AM 50.0 °F 48.2 °F 94% 30.29 in 10.0 mi Calm Calm - N/A   Overcast
5:55 AM 50.0 °F 48.2 °F 94% 30.29 in 10.0 mi Calm Calm - N/A   Scattered Clouds
5:56 AM 51.8 °F 48.2 °F 88% 30.29 in 10.0 mi Calm Calm - N/A   Scattered Clouds
6:15 AM 51.8 °F 48.2 °F 88% 30.30 in 10.0 mi Calm Calm - N/A   Scattered Clouds
6:35 AM 50.0 °F 48.2 °F 94% 30.31 in 10.0 mi Calm Calm - N/A   Mostly Cloudy
6:55 AM 50.0 °F 48.2 °F 94% 30.32 in 10.0 mi Calm Calm - N/A   Overcast
6:56 AM 50.0 °F 48.2 °F 94% 30.32 in 10.0 mi Calm Calm - N/A   Overcast
7:15 AM 51.8 °F 48.2 °F 88% 30.32 in 10.0 mi Calm Calm - N/A   Overcast
7:16 AM 51.8 °F 48.2 °F 88% 30.32 in 10.0 mi Calm Calm - N/A   Overcast
7:35 AM 51.8 °F 50.0 °F 94% 30.32 in 10.0 mi Calm Calm - N/A   Mostly Cloudy
7:55 AM 53.6 °F 51.8 °F 94% 30.32 in 10.0 mi Calm Calm - N/A   Scattered Clouds
8:16 AM 57.2 °F 53.6 °F 88% 30.32 in 10.0 mi Calm Calm - N/A   Clear
8:35 AM 57.2 °F 53.6 °F 88% 30.32 in 10.0 mi Calm Calm - N/A   Clear
8:55 AM 60.8 °F 53.6 °F 77% 30.32 in 10.0 mi Calm Calm - N/A   Clear
9:15 AM 64.4 °F 51.8 °F 64% 30.33 in 10.0 mi Calm Calm - N/A   Scattered Clouds
9:16 AM 64.4 °F 51.8 °F 64% 30.33 in 10.0 mi Calm Calm - N/A   Scattered Clouds
9:35 AM 66.2 °F 50.0 °F 56% 30.32 in 10.0 mi ENE 11.5 mph - N/A   Scattered Clouds
9:36 AM 66.2 °F 50.0 °F 56% 30.32 in 10.0 mi NE 10.4 mph - N/A   Scattered Clouds
9:55 AM 68.0 °F 50.0 °F 52% 30.32 in 10.0 mi ENE 10.4 mph - N/A   Scattered Clouds
10:15 AM 68.0 °F 50.0 °F 52% 30.32 in 10.0 mi NNE 11.5 mph 16.1 mph N/A   Scattered Clouds
10:35 AM 68.0 °F 50.0 °F 52% 30.32 in 10.0 mi NNE 11.5 mph 17.3 mph N/A   Mostly Cloudy
10:36 AM 68.0 °F 50.0 °F 52% 30.32 in 10.0 mi NE 11.5 mph 17.3 mph N/A   Mostly Cloudy
10:55 AM 69.8 °F 50.0 °F 49% 30.32 in 10.0 mi NE 12.7 mph 17.3 mph N/A   Scattered Clouds
11:15 AM 68.0 °F 48.2 °F 49% 30.32 in 10.0 mi NNE 10.4 mph - N/A   Scattered Clouds
11:35 AM 69.8 °F 48.2 °F 46% 30.33 in 10.0 mi NE 10.4 mph - N/A   Clear
11:36 AM 69.8 °F 48.2 °F 46% 30.33 in 10.0 mi NE 11.5 mph - N/A   Clear
11:55 AM 69.8 °F 46.4 °F 43% 30.32 in 10.0 mi NE 10.4 mph 18.4 mph N/A   Clear
12:15 PM 69.8 °F 48.2 °F 46% 30.32 in 10.0 mi NE 13.8 mph 17.3 mph N/A   Clear
12:35 PM 69.8 °F 46.4 °F 43% 30.32 in 10.0 mi NE 9.2 mph 19.6 mph N/A   Clear
12:55 PM 69.8 °F 48.2 °F 46% 30.31 in 10.0 mi NNE 6.9 mph - N/A   Clear
12:56 PM 69.8 °F 48.2 °F 46% 30.31 in 10.0 mi NNE 6.9 mph - N/A   Clear
1:15 PM 68.0 °F 48.2 °F 49% 30.31 in 10.0 mi NE 6.9 mph - N/A   Clear
1:35 PM 69.8 °F 46.4 °F 43% 30.31 in 10.0 mi Calm Calm - N/A   Scattered Clouds
1:55 PM 71.6 °F 48.2 °F 43% 30.30 in 10.0 mi NE 4.6 mph - N/A   Mostly Cloudy
1:56 PM 71.6 °F 48.2 °F 43% 30.30 in 10.0 mi NNE 6.9 mph - N/A   Mostly Cloudy
2:15 PM 69.8 °F 48.2 °F 46% 30.29 in 10.0 mi NE 3.5 mph - N/A   Mostly Cloudy
2:16 PM 69.8 °F 48.2 °F 46% 30.29 in 10.0 mi NE 4.6 mph - N/A   Mostly Cloudy
2:35 PM 71.6 °F 48.2 °F 43% 30.29 in 10.0 mi East 6.9 mph - N/A   Mostly Cloudy
2:55 PM 71.6 °F 48.2 °F 43% 30.29 in 10.0 mi North 3.5 mph - N/A   Scattered Clouds
2:56 PM 71.6 °F 48.2 °F 43% 30.29 in 10.0 mi Calm Calm - N/A   Scattered Clouds
3:15 PM 71.6 °F 48.2 °F 43% 30.29 in 10.0 mi East 4.6 mph - N/A   Mostly Cloudy
3:16 PM 71.6 °F 48.2 °F 43% 30.29 in 10.0 mi East 4.6 mph - N/A   Mostly Cloudy
3:35 PM 69.8 °F 48.2 °F 46% 30.29 in 10.0 mi NNE 5.8 mph - N/A   Overcast
3:55 PM 71.6 °F 50.0 °F 46% 30.29 in 10.0 mi NE 8.1 mph - N/A   Mostly Cloudy
4:15 PM 71.6 °F 50.0 °F 46% 30.28 in 10.0 mi NE 4.6 mph - N/A   Mostly Cloudy
4:16 PM 71.6 °F 50.0 °F 46% 30.28 in 10.0 mi ENE 5.8 mph - N/A   Mostly Cloudy
4:35 PM 69.8 °F 48.2 °F 46% 30.28 in 10.0 mi NE 5.8 mph - N/A   Mostly Cloudy
4:36 PM 69.8 °F 48.2 °F 46% 30.28 in 10.0 mi NNE 4.6 mph - N/A   Mostly Cloudy
4:55 PM 71.6 °F 50.0 °F 46% 30.27 in 10.0 mi NNE 5.8 mph - N/A   Scattered Clouds
5:15 PM 71.6 °F 50.0 °F 46% 30.27 in 10.0 mi North 4.6 mph - N/A   Scattered Clouds
5:35 PM 71.6 °F 50.0 °F 46% 30.28 in 10.0 mi NNE 9.2 mph - N/A   Mostly Cloudy
5:36 PM 71.6 °F 50.0 °F 46% 30.28 in 10.0 mi NNE 8.1 mph - N/A   Mostly Cloudy
5:55 PM 69.8 °F 51.8 °F 53% 30.28 in 10.0 mi NNE 5.8 mph - N/A   Mostly Cloudy
6:15 PM 69.8 °F 51.8 °F 53% 30.28 in 10.0 mi North 8.1 mph - N/A   Clear
6:35 PM 69.8 °F 51.8 °F 53% 30.27 in 10.0 mi NNE 8.1 mph - N/A   Clear
6:36 PM 69.8 °F 51.8 °F 53% 30.27 in 10.0 mi NNE 8.1 mph - N/A   Clear
6:55 PM 69.8 °F 51.8 °F 53% 30.27 in 10.0 mi NNE 8.1 mph - N/A   Clear
6:56 PM 69.8 °F 51.8 °F 53% 30.27 in 10.0 mi NNE 6.9 mph - N/A   Clear
7:15 PM 68.0 °F 53.6 °F 60% 30.27 in 10.0 mi NE 8.1 mph - N/A   Clear
7:35 PM 68.0 °F 53.6 °F 60% 30.27 in 10.0 mi NNE 6.9 mph - N/A   Clear
7:55 PM 66.2 °F 53.6 °F 64% 30.28 in 10.0 mi NNE 3.5 mph - N/A   Clear
7:56 PM 66.2 °F 53.6 °F 64% 30.28 in 10.0 mi North 4.6 mph - N/A   Clear
8:15 PM 66.2 °F 53.6 °F 64% 30.28 in 10.0 mi North 3.5 mph - N/A   Clear
8:35 PM 64.4 °F 53.6 °F 68% 30.28 in 10.0 mi North 3.5 mph - N/A   Clear
8:55 PM 64.4 °F 53.6 °F 68% 30.28 in 10.0 mi North 4.6 mph - N/A   Clear
8:56 PM 64.4 °F 53.6 °F 68% 30.28 in 10.0 mi North 3.5 mph - N/A   Clear
9:15 PM 62.6 °F 53.6 °F 72% 30.29 in 10.0 mi North 3.5 mph - N/A   Clear
9:16 PM 62.6 °F 53.6 °F 72% 30.29 in 10.0 mi North 3.5 mph - N/A   Clear
9:35 PM 62.6 °F 53.6 °F 72% 30.29 in 10.0 mi North 3.5 mph - N/A   Clear
9:55 PM 60.8 °F 53.6 °F 77% 30.29 in 10.0 mi North 3.5 mph - N/A   Clear
9:56 PM 60.8 °F 53.6 °F 77% 30.29 in 10.0 mi North 3.5 mph - N/A   Clear
10:15 PM 59.0 °F 53.6 °F 82% 30.29 in 10.0 mi Calm Calm - N/A   Clear
10:16 PM 59.0 °F 53.6 °F 82% 30.29 in 10.0 mi Calm Calm - N/A   Clear
10:35 PM 57.2 °F 53.6 °F 88% 30.29 in 10.0 mi Calm Calm - N/A   Clear
10:55 PM 57.2 °F 53.6 °F 88% 30.29 in 10.0 mi Calm Calm - N/A   Clear
11:15 PM 55.4 °F 51.8 °F 88% 30.28 in 10.0 mi Calm Calm - N/A   Clear
11:16 PM 55.4 °F 51.8 °F 88% 30.28 in 10.0 mi Calm Calm - N/A   Clear
11:35 PM 55.4 °F 51.8 °F 88% 30.28 in 7.0 mi Calm Calm - N/A   Clear
11:36 PM 55.4 °F 51.8 °F 88% 30.28 in 5.0 mi Calm Calm - N/A   Clear
11:55 PM 55.4 °F 51.8 °F 88% 30.28 in 7.0 mi Calm Calm - N/A   Clear